Flag for U.S.A. Weather past 2 weeks in Provo, Utah, U.S.A.

Now
57 °F

Clear.


Feels Like: 57 °F
Forecast: 51 / 79 °F
Wind: 3 mph from Southeast

Location: Provo Municipal

Current Time: Aug 27, 2014 at 11:16:21 PM

Latest Report: Aug 27, 2014 at 10:35 PM


Visibility: 10 mi

Pressure: 30.26 "Hg

Humidity: 77%

Dew point: 50 °F

Location of ProvoLocation

Historic Weather in Provo — Graph

°F

Provo temperature yesterday

Maximum temperature yesterday: 73 °F (at 1:53 PM)
Minimum temperature yesterday: 57 °F (at 6:35 AM)
Average temperature yesterday: 64 °F

Past Weeks' High & Low Weather Summary

 TemperatureHumidityPressure
High95 °F (Aug 17, 5:49 PM)94% (Aug 20, 5:15 AM)30.28 "Hg (Aug 20, 5:15 AM)
Low52 °F (Aug 23, 5:35 AM)11% (Aug 17, 4:48 PM)29.88 "Hg (Aug 22, 4:47 PM)
Average68 °F57%30.08 "Hg
* Reported Aug 12 10:15 PM — Aug 27 10:15 PM, Provo, Weather by CustomWeather, © 2014

Note: Actual official high and low records may vary slightly from our data, if they occured in-between our weather recording intervals... More about our weather records

Advertising

Provo weather history for previous 24 hours

 ConditionsComfort  
Time TempWeatherWind HumidityBarometerVisibility
10:15 PM
Aug 27
61 °FClear.No wind72%30.26 "Hg10 mi
9:55 PM61 °FClear.7 mph72%30.26 "Hg10 mi
9:35 PM63 °FClear.5 mph64%30.26 "Hg10 mi
9:15 PM63 °FClear.3 mph64%30.26 "Hg10 mi
8:50 PM63 °FScattered clouds.No wind68%30.25 "Hg15 mi
7:57 PM66 °FScattered clouds.6 mph60%30.24 "Hg15 mi
6:55 PM72 °FScattered clouds.6 mph47%30.23 "Hg15 mi
5:50 PM72 °FScattered clouds.7 mph44%30.24 "Hg15 mi
4:50 PM72 °FPartly sunny.3 mph44%30.24 "Hg15 mi
3:47 PM68 °FPartly sunny.5 mph49%30.24 "Hg15 mi
2:51 PM70 °FScattered clouds.5 mph46%30.25 "Hg15 mi
1:52 PM66 °FPartly sunny.No wind52%30.26 "Hg15 mi
12:59 PM68 °FBroken clouds.7 mph49%30.26 "Hg15 mi
11:53 AM66 °FBroken clouds.5 mph60%30.28 "Hg15 mi
10:57 AM63 °FPartly sunny.No wind73%30.27 "Hg15 mi
9:51 AM63 °FBroken clouds.6 mph73%30.26 "Hg15 mi
8:50 AM61 °FBroken clouds.6 mph77%30.25 "Hg15 mi
7:50 AM59 °FBroken clouds.6 mph82%30.24 "Hg15 mi
6:49 AM57 °FScattered showers. Partly cloudy.6 mph88%30.23 "Hg15 mi
6:35 AM57 °FPassing clouds.5 mph88%30.23 "Hg10 mi
6:15 AM57 °FPassing clouds.5 mph82%30.22 "Hg10 mi
5:55 AM57 °FClear.No wind88%30.22 "Hg10 mi
5:35 AM57 °FClear.No wind88%30.21 "Hg10 mi
5:15 AM57 °FPassing clouds.No wind88%30.21 "Hg10 mi
4:55 AM57 °FPassing clouds.5 mph88%30.21 "Hg10 mi
4:35 AM57 °FOvercast.5 mph88%30.22 "Hg10 mi
4:15 AM59 °FMostly cloudy.6 mph82%30.21 "Hg10 mi
3:55 AM59 °FOvercast.5 mph82%30.21 "Hg10 mi
3:35 AM61 °FOvercast.No wind77%30.20 "Hg10 mi
3:15 AM59 °FPassing clouds.No wind77%30.20 "Hg10 mi
2:35 AM57 °FPassing clouds.No wind82%30.20 "Hg10 mi
2:15 AM59 °FPassing clouds.3 mph77%30.20 "Hg10 mi
1:55 AM57 °FPassing clouds.5 mph82%30.20 "Hg10 mi
1:35 AM57 °FPassing clouds.5 mph82%30.21 "Hg10 mi
1:15 AM59 °FOvercast.5 mph77%30.21 "Hg10 mi
12:55 AM59 °FPassing clouds.5 mph77%30.21 "Hg10 mi
12:35 AM61 °FPartly cloudy.5 mph77%30.21 "Hg10 mi
12:15 AM61 °FMostly cloudy.8 mph72%30.21 "Hg10 mi
11:55 PM
Aug 26
61 °FOvercast.5 mph77%30.21 "Hg10 mi
11:35 PM63 °FPassing clouds.3 mph73%30.20 "Hg10 mi
11:15 PM61 °FPassing clouds.No wind72%30.20 "Hg10 mi
Weather by CustomWeather, © 2014

See weather overviewHow to use our weather pages